This is the latest recevied weather packets stored in our database for station/object SP9SVH-2. If no packets are shown the sender has not sent any weather packets the latest 10 day(s).
| Time | Temp. | Humidity | Pressure | Rain* | Wind** | Luminosity | Snow |
|---|---|---|---|---|---|---|---|
| 1777228770 | 6.67° C | 4% | - | 0 mm | 0 m/s | - | - |
| 1777227790 | 7.22° C | 4% | - | 0 mm | 0 m/s | - | - |
| 1777226644 | 7.78° C | 4% | - | 0 mm | 0 m/s | - | - |
| 1777225665 | 8.33° C | 3% | - | 0 mm | 0 m/s | - | - |
| 1777224485 | 8.89° C | 3% | - | 0 mm | 0.45 m/s, 344° | - | - |
| 1777222487 | 9.44° C | 3% | - | 0 mm | 0 m/s | - | - |
| 1777221390 | 10° C | 3% | - | 0 mm | 0.89 m/s, 292° | - | - |
| 1777220205 | 10° C | 3% | - | 0 mm | 0.45 m/s, 313° | - | - |
| 1777219244 | 10.56° C | 3% | - | 0 mm | 1.34 m/s, 343° | - | - |
| 1777218286 | 10.56° C | 3% | - | 0 mm | 0.45 m/s, 279° | - | - |
| 1777217144 | 10.56° C | 3% | - | 0 mm | 2.24 m/s, 349° | - | - |
| 1777216070 | 11.11° C | 3% | - | 0 mm | 1.79 m/s, 335° | - | - |
| 1777214965 | 10° C | 3% | - | 0 mm | 0.89 m/s, 322° | - | - |
| 1777213825 | 11.11° C | 3% | - | 0 mm | 1.34 m/s, 24° | - | - |
| 1777212744 | 11.67° C | 3% | - | 0 mm | 1.79 m/s, 302° | - | - |
| 1777211684 | 11.67° C | 3% | - | 0 mm | 0.45 m/s, 328° | - | - |
| 1777210584 | 10.56° C | 4% | - | 0 mm | 0.89 m/s, 353° | - | - |
| 1777209395 | 10.56° C | 4% | - | 0 mm | 0.89 m/s, 339° | - | - |
| 1777208390 | 10.56° C | 3% | - | 0 mm | 1.79 m/s, 0° | - | - |
| 1777207265 | 11.67° C | 3% | - | 0 mm | 1.79 m/s, 334° | - | - |
| 1777206285 | 10° C | 4% | - | 0 mm | 0.45 m/s, 278° | - | - |
| 1777205204 | 10° C | 4% | - | 0 mm | 0 m/s | - | - |
| 1777203045 | 10° C | 4% | - | 0 mm | 1.34 m/s, 349° | - | - |
| 1777201965 | 10° C | 4% | - | 0 mm | 0 m/s | - | - |
| 1777199865 | 8.89° C | 4% | - | 0 mm | 0.89 m/s, 350° | - | - |
* Rain latest hour (hover to see other rain measurements)
** Current wind speed in m/s (hover to see current wind gust speed)